TimeMST,TemperatureF,Dew PointF,Humidity,Sea Level PressureIn,VisibilityMPH,Wind Direction,Wind SpeedMPH,Gust SpeedMPH,PrecipitationIn,Events,Conditions,WindDirDegrees,DateUTC
12:53 AM,-0.0,-4.0,83,30.26,10.0,West,8.1,-,N/A,,Mostly Cloudy,280,2013-01-13 07:53:00
1:53 AM,-0.0,-5.1,79,30.25,10.0,NW,5.8,-,N/A,,Overcast,310,2013-01-13 08:53:00
2:53 AM,-2.0,-7.1,79,30.26,10.0,West,8.1,-,N/A,,Partly Cloudy,280,2013-01-13 09:53:00
3:53 AM,-2.0,-6.0,83,30.26,10.0,West,8.1,-,N/A,,Mostly Cloudy,260,2013-01-13 10:53:00
4:53 AM,-2.9,-7.1,82,30.29,10.0,West,9.2,-,N/A,,Clear,260,2013-01-13 11:53:00
5:53 AM,-0.9,-6.0,79,30.30,10.0,West,9.2,-,N/A,,Clear,270,2013-01-13 12:53:00
6:53 AM,-2.0,-6.0,83,30.32,10.0,West,9.2,-,N/A,,Clear,260,2013-01-13 13:53:00
7:53 AM,-0.0,-5.1,79,30.37,10.0,West,8.1,-,N/A,,Clear,260,2013-01-13 14:53:00
8:53 AM,1.9,-2.0,83,30.38,10.0,WSW,6.9,-,N/A,,Clear,250,2013-01-13 15:53:00
9:53 AM,6.1,1.0,80,30.35,10.0,West,9.2,-,N/A,,Clear,280,2013-01-13 16:53:00
10:53 AM,9.0,1.9,73,30.32,10.0,WNW,8.1,-,N/A,,Clear,300,2013-01-13 17:53:00
11:53 AM,10.9,3.0,70,30.30,10.0,WNW,5.8,-,N/A,,Clear,300,2013-01-13 18:53:00
12:53 PM,12.0,1.9,64,30.30,10.0,NW,6.9,-,N/A,,Clear,320,2013-01-13 19:53:00
1:53 PM,12.9,1.9,62,30.29,10.0,NW,5.8,-,N/A,,Clear,320,2013-01-13 20:53:00
2:53 PM,12.9,1.9,62,30.31,10.0,NNW,5.8,-,N/A,,Clear,340,2013-01-13 21:53:00
3:53 PM,12.0,1.0,61,30.32,10.0,NNW,4.6,-,N/A,,Clear,330,2013-01-13 22:53:00
4:53 PM,10.0,-0.0,64,30.34,10.0,Calm,Calm,-,N/A,,Clear,0,2013-01-13 23:53:00
5:53 PM,5.0,-2.0,73,30.37,10.0,West,3.5,-,N/A,,Clear,280,2013-01-14 00:53:00
6:53 PM,3.0,-2.9,76,30.38,10.0,WNW,5.8,-,N/A,,Clear,290,2013-01-14 01:53:00
7:53 PM,1.9,-4.0,76,30.40,10.0,WNW,4.6,-,N/A,,Clear,300,2013-01-14 02:53:00
8:53 PM,1.9,-4.0,76,30.40,10.0,West,4.6,-,N/A,,Clear,280,2013-01-14 03:53:00
9:53 PM,1.0,-4.0,79,30.40,10.0,West,4.6,-,N/A,,Partly Cloudy,260,2013-01-14 04:53:00
11:53 PM,1.9,-4.0,76,30.36,10.0,SSW,3.5,-,N/A,,Clear,210,2013-01-14 06:53:00